User: anonymous   Login
Location: Unspecified
(0.0000°N, 0.0000°E)
Time: 08:08:44
(UTC+02:00)
Language:

YAOGAN 3 - Orbit

View from above orbital plane
View from above orbital plane
View from above satellite
View from above satellite

Ground track
Ground track

The orbit data is extracted from the following two-line orbital elements,

1 32289U 07055A   18168.85873832  .00000267  00000-0  41407-4 0  9994
2 32289  98.0051 175.1105 0001252  99.9754 260.1610 14.80900921572859
Epoch (UTC): 17 June 2018 20:36:34
Eccentricity: 0.0001252
inclination: 98.0051°
perigee height: 625 km
apogee height: 627 km
right ascension of ascending node: 175.1105°
argument of perigee: 99.9754°
revolutions per day: 14.80900921
mean anomaly at epoch: 260.1610°
orbit number at epoch: 57285

The dashed part of the orbit path shows where the satellite is in the earth's shadow,  

DLR